Date String (YYYY-MM-DD hh:mm:ss) UTC,Instrument flags,absolute air pressure of the measurement (hPa),sample flow rate (lpm),inlet stack bypass flow (lpm),air temperature of the measurement (°C),ambient temperature measured by the external sensor (°C),aerosol sample conditioner tube jacket temperature (°C),OPC LED temperature (°C),internal box temperature (°C),relative humidity of the measurement (%),span deviation,mass concentration of particles derived from Lorenz-Mie calculation of OPC scattering (μg/m³),mass concentration of particles derived from Lorenz-Mie calculation of OPC scattering (μg/m³),mass concentration of particles derived from Lorenz-Mie calculation of OPC scattering (μg/m³)
DateTimeUTC,F1_M11,P_M11,Q1_M11,Q2_M11,T1_M11,T2_M11,T3_M11,T4_M11,T5_M11,U1_M11,ZSPAN_M11,X0_M11,X2_M11,X1_M11
2023-09-20 08:00:00,SystemResetWarning,0829.3,5.01,000.00,028.9,027.4,000.0,037.3,030.5,16.6,0000.0,0003.71,0001.63,0001.33
2023-09-20 08:01:00,SystemResetWarning,0829.4,5.01,000.00,028.9,027.5,000.0,037.3,030.5,16.6,0000.0,0003.64,0001.61,0001.32
2023-09-20 08:02:00,SystemResetWarning,0829.4,4.99,000.00,028.9,027.5,000.0,037.3,030.6,16.6,0000.0,0003.72,0001.63,0001.32
2023-09-20 08:03:00,SystemResetWarning,0829.4,4.99,000.00,028.9,027.5,000.0,037.3,030.6,16.5,0000.0,0003.49,0001.61,0001.31
2023-09-20 08:04:00,SystemResetWarning,0829.4,5.01,000.00,028.9,027.5,000.0,037.3,030.5,16.4,0000.0,0002.46,0001.62,0001.30
2023-09-20 08:05:00,SystemResetWarning,0829.4,5.02,000.00,028.9,027.5,000.0,037.3,030.6,16.3,0000.0,0002.47,0001.61,0001.29
2023-09-20 08:06:00,SystemResetWarning,0829.3,5.00,000.00,028.9,027.5,000.0,037.3,030.6,16.3,0000.0,0002.33,0001.56,0001.28
2023-09-20 08:07:00,SystemResetWarning,0829.3,4.99,000.00,028.9,027.5,000.0,037.3,030.6,16.4,0000.0,0002.32,0001.56,0001.27
2023-09-20 08:08:00,SystemResetWarning,0829.3,5.00,000.00,028.9,027.4,000.0,037.3,030.6,16.4,0000.0,0002.35,0001.57,0001.28
2023-09-20 08:09:00,SystemResetWarning,0829.3,5.01,000.00,028.9,027.4,000.0,037.3,030.5,16.5,0000.0,0002.49,0001.59,0001.29
2023-09-20 08:10:00,SystemResetWarning,0829.3,5.01,000.00,028.9,027.4,000.0,037.3,030.4,16.4,0000.0,0002.52,0001.59,0001.29
2023-09-20 08:11:00,SystemResetWarning,0829.2,5.00,000.00,028.9,027.4,000.0,037.3,030.4,16.4,0000.0,0002.56,0001.60,0001.29
2023-09-20 08:12:00,SystemResetWarning,0829.2,4.99,000.00,028.9,027.4,000.0,037.3,030.4,16.5,0000.0,0002.62,0001.62,0001.29
2023-09-20 08:13:00,SystemResetWarning,0829.2,4.99,000.00,028.8,027.4,000.0,037.3,030.4,16.5,0000.0,0002.65,0001.63,0001.29
2023-09-20 08:14:00,SystemResetWarning,0829.2,4.99,000.00,028.8,027.4,000.0,037.3,030.4,16.7,0000.0,0002.62,0001.62,0001.30
2023-09-20 08:15:00,SystemResetWarning,0829.1,5.00,000.00,028.8,027.3,000.0,037.3,030.5,16.9,0000.0,0002.52,0001.59,0001.30
2023-09-20 08:16:00,SystemResetWarning,0829.1,5.00,000.00,028.8,027.3,000.0,037.3,030.4,16.8,0000.0,0002.49,0001.59,0001.29
2023-09-20 08:17:00,SystemResetWarning,0829.1,5.01,000.00,028.8,027.3,000.0,037.3,030.4,16.7,0000.0,0002.44,0001.60,0001.29
2023-09-20 08:18:00,SystemResetWarning,0829.1,5.00,000.00,028.8,027.3,000.0,037.3,030.4,16.6,0000.0,0002.52,0001.60,0001.30
2023-09-20 08:19:00,SystemResetWarning,0829.1,5.00,000.00,028.8,027.3,000.0,037.3,030.4,16.6,0000.0,0002.51,0001.59,0001.30
2023-09-20 08:20:00,SystemResetWarning,0829.1,5.00,000.00,028.8,027.3,000.0,037.3,030.3,16.5,0000.0,0002.51,0001.58,0001.29
2023-09-20 08:21:00,SystemResetWarning,0829.0,4.99,000.00,028.8,027.3,000.0,037.3,030.3,16.4,0000.0,0002.51,0001.56,0001.29
2023-09-20 08:22:00,SystemResetWarning,0829.1,5.00,000.00,028.8,027.3,000.0,037.3,030.3,16.5,0000.0,0002.40,0001.52,0001.28
2023-09-20 08:23:00,SystemResetWarning,0829.0,5.00,000.00,028.8,027.3,000.0,037.3,030.3,16.5,0000.0,0002.33,0001.49,0001.28
2023-09-20 08:24:00,SystemResetWarning,0829.0,5.00,000.00,028.8,027.3,000.0,037.3,030.3,16.5,0000.0,0002.34,0001.47,0001.26
2023-09-20 08:25:00,SystemResetWarning,0829.1,5.01,000.00,028.8,027.3,000.0,037.3,030.3,16.2,0000.0,0002.33,0001.48,0001.25
2023-09-20 08:26:00,SystemResetWarning,0829.0,5.01,000.00,028.8,027.3,000.0,037.3,030.3,16.3,0000.0,0002.38,0001.50,0001.25
2023-09-20 08:27:00,SystemResetWarning,0829.0,5.00,000.00,028.8,027.3,000.0,037.3,030.3,16.4,0000.0,0002.37,0001.50,0001.26
2023-09-20 08:28:00,SystemResetWarning,0829.0,5.00,000.00,028.8,027.3,000.0,037.3,030.3,16.3,0000.0,0002.40,0001.50,0001.27
2023-09-20 08:29:00,SystemResetWarning,0829.0,5.00,000.00,028.8,027.3,000.0,037.2,030.3,16.3,0000.0,0002.42,0001.52,0001.25
2023-09-20 08:30:00,SystemResetWarning,0829.0,5.01,000.00,028.8,027.3,000.0,037.3,030.3,16.2,0000.0,0002.46,0001.53,0001.24
2023-09-20 08:31:00,SystemResetWarning,0829.0,5.00,000.00,028.8,027.3,000.0,037.3,030.3,16.3,0000.0,0002.34,0001.52,0001.24
2023-09-20 08:32:00,SystemResetWarning,0829.1,5.00,000.00,028.8,027.3,000.0,037.2,030.3,16.2,0000.0,0002.43,0001.53,0001.25
2023-09-20 08:33:00,SystemResetWarning,0829.0,4.99,000.00,028.8,027.3,000.0,037.2,030.3,16.2,0000.0,0002.55,0001.57,0001.25
2023-09-20 08:34:00,SystemResetWarning,0829.0,5.00,000.00,028.8,027.3,000.0,037.2,030.3,16.3,0000.0,0002.56,0001.58,0001.25
2023-09-20 08:35:00,SystemResetWarning,0829.0,5.00,000.00,028.8,027.3,000.0,037.2,030.3,16.1,0000.0,0002.46,0001.56,0001.25
2023-09-20 08:36:00,SystemResetWarning,0829.0,5.01,000.00,028.8,027.3,000.0,037.2,030.3,16.2,0000.0,0002.42,0001.55,0001.26
2023-09-20 08:37:00,SystemResetWarning,0829.0,5.01,000.00,028.8,027.3,000.0,037.2,030.3,16.3,0000.0,0002.40,0001.54,0001.27
2023-09-20 08:38:00,SystemResetWarning,0829.0,5.00,000.00,028.8,027.3,000.0,037.2,030.4,16.3,0000.0,0002.95,0001.56,0001.27
2023-09-20 08:39:00,SystemResetWarning,0829.1,5.01,000.00,028.8,027.3,000.0,037.2,030.4,16.3,0000.0,0003.54,0001.58,0001.27
2023-09-20 08:40:00,SystemResetWarning,0829.0,5.00,000.00,028.8,027.3,000.0,037.2,030.4,16.4,0000.0,0003.46,0001.57,0001.27
2023-09-20 08:41:00,SystemResetWarning,0829.1,5.00,000.00,028.8,027.3,000.0,037.2,030.4,16.3,0000.0,0003.48,0001.60,0001.27
2023-09-20 08:42:00,SystemResetWarning,0829.1,5.00,000.00,028.8,027.3,000.0,037.2,030.3,16.1,0000.0,0003.56,0001.62,0001.26
2023-09-20 08:43:00,SystemResetWarning,0829.1,5.00,000.00,028.8,027.3,000.0,037.2,030.3,16.1,0000.0,0003.44,0001.63,0001.26
2023-09-20 08:44:00,SystemResetWarning,0829.1,5.01,000.00,028.8,027.3,000.0,037.2,030.3,16.1,0000.0,0003.32,0001.61,0001.27
2023-09-20 08:45:00,SystemResetWarning,0829.0,5.01,000.00,028.8,027.3,000.0,037.2,030.4,16.1,0000.0,0003.48,0001.62,0001.26
2023-09-20 08:46:00,SystemResetWarning,0829.0,4.99,000.00,028.8,027.3,000.0,037.2,030.4,16.2,0000.0,0004.49,0001.65,0001.27
2023-09-20 08:47:00,SystemResetWarning,0829.0,4.99,000.00,028.8,027.3,000.0,037.2,030.4,16.4,0000.0,0004.63,0001.69,0001.28
2023-09-20 08:48:00,SystemResetWarning,0829.0,5.00,000.00,028.8,027.3,000.0,037.2,030.3,16.4,0000.0,0004.65,0001.69,0001.28
2023-09-20 08:49:00,SystemResetWarning,0829.0,5.00,000.00,028.8,027.3,000.0,037.2,030.3,16.4,0000.0,0004.23,0001.64,0001.28
2023-09-20 08:50:00,SystemResetWarning,0828.9,5.00,000.00,028.8,027.3,000.0,037.2,030.3,16.5,0000.0,0003.46,0001.63,0001.27
2023-09-20 08:51:00,SystemResetWarning,0828.9,5.01,000.00,028.7,027.3,000.0,037.2,030.4,16.3,0000.0,0003.51,0001.65,0001.27
2023-09-20 08:52:00,SystemResetWarning,0828.8,5.01,000.00,028.7,027.3,000.0,037.2,030.3,16.3,0000.0,0003.44,0001.63,0001.27
2023-09-20 08:53:00,SystemResetWarning,0828.9,5.00,000.00,028.7,027.3,000.0,037.2,030.3,16.2,0000.0,0003.33,0001.58,0001.28
2023-09-20 08:54:00,SystemResetWarning,0828.8,5.00,000.00,028.7,027.3,000.0,037.2,030.3,16.4,0000.0,0003.43,0001.59,0001.28
2023-09-20 08:55:00,SystemResetWarning,0828.7,5.00,000.00,028.7,027.3,000.0,037.2,030.3,16.4,0000.0,0003.45,0001.58,0001.26
2023-09-20 08:56:00,SystemResetWarning,0828.7,4.99,000.00,028.7,027.3,000.0,037.2,030.3,16.2,0000.0,0003.47,0001.58,0001.25
2023-09-20 08:57:00,SystemResetWarning,0828.8,5.00,000.00,028.7,027.3,000.0,037.2,030.3,16.3,0000.0,0002.68,0001.55,0001.24
2023-09-20 08:58:00,SystemResetWarning,0828.8,5.00,000.00,028.7,027.3,000.0,037.2,030.3,16.1,0000.0,0002.12,0001.48,0001.21
2023-09-20 08:59:00,SystemResetWarning,0828.7,5.00,000.00,028.7,027.3,000.0,037.2,030.3,16.2,0000.0,0002.20,0001.46,0001.20
